Date String (YYYY-MM-DD hh:mm:ss) UTC,Instrument flags,absolute air pressure of the measurement (hPa),sample flow rate (lpm),inlet stack bypass flow (lpm),air temperature of the measurement (°C),ambient temperature measured by the external sensor (°C),aerosol sample conditioner tube jacket temperature (°C),OPC LED temperature (°C),internal box temperature (°C),relative humidity of the measurement (%),span deviation,mass concentration of particles derived from Lorenz-Mie calculation of OPC scattering (μg/m³),mass concentration of particles derived from Lorenz-Mie calculation of OPC scattering (μg/m³),mass concentration of particles derived from Lorenz-Mie calculation of OPC scattering (μg/m³)
DateTimeUTC,F1_M11,P_M11,Q1_M11,Q2_M11,T1_M11,T2_M11,T3_M11,T4_M11,T5_M11,U1_M11,ZSPAN_M11,X2_M11,X0_M11,X1_M11
2023-11-02 00:00:00,SystemResetWarning,0831.1,5.00,000.00,026.9,025.8,000.0,035.2,028.3,12.6,0004.5,0007.25,0015.43,0006.55
2023-11-02 00:01:00,SystemResetWarning,0831.1,4.99,000.00,026.9,025.8,000.0,035.2,028.3,12.3,0002.5,0007.07,0013.76,0006.43
2023-11-02 00:02:00,SystemResetWarning,0831.1,4.98,000.00,026.9,025.8,000.0,035.2,028.3,12.0,0003.0,0007.03,0013.38,0006.40
2023-11-02 00:03:00,SystemResetWarning,0831.1,5.01,000.00,026.9,025.8,000.0,035.2,028.3,12.2,0004.1,0007.04,0013.87,0006.43
2023-11-02 00:04:00,SystemResetWarning,0831.1,5.02,000.00,026.9,025.8,000.0,035.2,028.3,12.2,0005.0,0007.01,0013.94,0006.44
2023-11-02 00:05:00,SystemResetWarning,0831.1,4.98,000.00,026.9,025.8,000.0,035.2,028.3,11.1,0004.3,0006.96,0013.71,0006.39
2023-11-02 00:06:00,SystemResetWarning,0831.1,5.00,000.00,026.9,025.8,000.0,035.2,028.3,11.3,0004.1,0006.98,0013.71,0006.41
2023-11-02 00:07:00,SystemResetWarning,0831.1,5.00,000.00,026.9,025.8,000.0,035.2,028.3,11.6,0003.0,0007.06,0013.47,0006.47
2023-11-02 00:08:00,SystemResetWarning,0831.1,5.01,000.00,026.9,025.8,000.0,035.2,028.3,10.9,0003.2,0007.11,0013.10,0006.51
2023-11-02 00:09:00,SystemResetWarning,0831.2,4.99,000.00,026.9,025.8,000.0,035.2,028.3,11.1,0002.3,0007.14,0013.18,0006.56
2023-11-02 00:10:00,SystemResetWarning,0831.2,4.99,000.00,026.9,025.7,000.0,035.2,028.3,11.2,0001.4,0007.15,0013.17,0006.57
2023-11-02 00:11:00,SystemResetWarning,0831.2,4.99,000.00,026.8,025.7,000.0,035.2,028.3,10.9,0001.3,0007.09,0012.57,0006.55
2023-11-02 00:12:00,SystemResetWarning,0831.2,5.01,000.00,026.8,025.7,000.0,035.2,028.2,10.7,0001.7,0007.18,0012.72,0006.62
2023-11-02 00:13:00,SystemResetWarning,0831.2,5.01,000.00,026.8,025.7,000.0,035.2,028.3,10.6,0002.0,0007.26,0012.85,0006.72
2023-11-02 00:14:00,SystemResetWarning,0831.2,4.99,000.00,026.8,025.7,000.0,035.2,028.3,10.4,0002.7,0007.32,0012.56,0006.76
2023-11-02 00:15:00,SystemResetWarning,0831.2,5.00,000.00,026.8,025.7,000.0,035.2,028.3,10.3,0001.2,0007.37,0012.20,0006.81
2023-11-02 00:16:00,SystemResetWarning,0831.2,5.00,000.00,026.8,025.6,000.0,035.2,028.2,10.1,0000.2,0007.50,0013.12,0006.89
2023-11-02 00:17:00,SystemResetWarning,0831.2,5.00,000.00,026.8,025.6,000.0,035.2,028.2,10.3,-001.4,0007.50,0013.32,0006.88
2023-11-02 00:18:00,SystemResetWarning,0831.2,5.00,000.00,026.8,025.6,000.0,035.2,028.2,10.2,-000.8,0007.43,0013.75,0006.82
2023-11-02 00:19:00,SystemResetWarning,0831.2,4.99,000.00,026.8,025.6,000.0,035.2,028.2,9.7,-000.2,0007.36,0013.53,0006.75
2023-11-02 00:20:00,SystemResetWarning,0831.2,5.01,000.00,026.8,025.6,000.0,035.2,028.2,10.0,0000.8,0007.37,0013.90,0006.75
2023-11-02 00:21:00,SystemResetWarning,0831.3,5.01,000.00,026.8,025.6,000.0,035.2,028.1,9.9,0003.3,0007.40,0014.45,0006.77
2023-11-02 00:22:00,SystemResetWarning,0831.2,4.99,000.00,026.8,025.6,000.0,035.2,028.1,10.1,0002.4,0007.51,0014.57,0006.83
2023-11-02 00:23:00,SystemResetWarning,0831.3,4.99,000.00,026.8,025.5,000.0,035.2,028.1,10.3,0000.9,0007.47,0014.79,0006.78
2023-11-02 00:24:00,SystemResetWarning,0831.3,5.01,000.00,026.8,025.5,000.0,035.2,028.1,10.3,0001.1,0007.41,0015.16,0006.70
2023-11-02 00:25:00,SystemResetWarning,0831.3,5.00,000.00,026.8,025.5,000.0,035.2,028.1,10.3,-000.5,0007.36,0015.05,0006.65
2023-11-02 00:26:00,SystemResetWarning,0831.3,5.00,000.00,026.7,025.5,000.0,035.2,028.1,10.2,-001.3,0007.33,0015.00,0006.60
2023-11-02 00:27:00,SystemResetWarning,0831.3,5.00,000.00,026.7,025.5,000.0,035.2,028.1,10.3,-001.0,0007.17,0014.15,0006.48
2023-11-02 00:28:00,SystemResetWarning,0831.3,5.00,000.00,026.7,025.5,000.0,035.2,028.1,10.1,-000.7,0007.00,0013.58,0006.34
2023-11-02 00:29:00,SystemResetWarning,0831.3,4.99,000.00,026.7,025.5,000.0,035.2,028.1,10.1,-000.2,0006.85,0012.85,0006.20
2023-11-02 00:30:00,SystemResetWarning,0831.3,4.99,000.00,026.7,025.5,000.0,035.2,028.1,10.2,-001.4,0006.71,0012.67,0006.08
2023-11-02 00:31:00,SystemResetWarning,0831.3,5.01,000.00,026.7,025.5,000.0,035.2,028.1,10.4,-001.4,0006.56,0012.49,0005.96
2023-11-02 00:32:00,SystemResetWarning,0831.3,5.01,000.00,026.7,025.5,000.0,035.2,028.1,10.2,-001.9,0006.36,0012.01,0005.77
2023-11-02 00:33:00,SystemResetWarning,0831.3,5.00,000.00,026.7,025.5,000.0,035.1,028.1,10.3,-002.4,0006.16,0011.87,0005.60
2023-11-02 00:34:00,SystemResetWarning,0831.3,4.99,000.00,026.7,025.5,000.0,035.1,028.1,10.3,-002.7,0006.16,0011.69,0005.61
2023-11-02 00:35:00,SystemResetWarning,0831.3,5.00,000.00,026.7,025.5,000.0,035.1,028.1,10.2,-003.1,0006.19,0011.36,0005.66
2023-11-02 00:36:00,SystemResetWarning,0831.3,5.01,000.00,026.7,025.5,000.0,035.1,028.1,10.2,-003.3,0006.20,0011.35,0005.66
2023-11-02 00:37:00,SystemResetWarning,0831.3,5.00,000.00,026.7,025.5,000.0,035.1,028.1,10.2,-001.8,0006.14,0011.76,0005.62
2023-11-02 00:38:00,SystemResetWarning,0831.3,4.99,000.00,026.7,025.4,000.0,035.1,028.1,10.2,-002.5,0006.09,0011.74,0005.61
2023-11-02 00:39:00,SystemResetWarning,0831.3,5.01,000.00,026.7,025.4,000.0,035.1,028.0,10.1,-001.6,0006.15,0011.88,0005.68
2023-11-02 00:40:00,SystemResetWarning,0831.3,5.01,000.00,026.7,025.4,000.0,035.1,028.0,10.1,0000.1,0006.23,0011.94,0005.77
2023-11-02 00:41:00,SystemResetWarning,0831.3,5.00,000.00,026.7,025.4,000.0,035.1,028.0,10.2,0000.5,0006.15,0011.90,0005.70
2023-11-02 00:42:00,SystemResetWarning,0831.3,4.99,000.00,026.6,025.4,000.0,035.1,028.0,10.2,0000.5,0006.05,0011.50,0005.61
2023-11-02 00:43:00,SystemResetWarning,0831.3,4.99,000.00,026.6,025.4,000.0,035.1,028.0,10.4,-000.2,0006.06,0011.16,0005.63
2023-11-02 00:44:00,SystemResetWarning,0831.3,4.99,000.00,026.6,025.4,000.0,035.1,028.0,10.4,0001.0,0005.95,0010.16,0005.55
2023-11-02 00:45:00,SystemResetWarning,0831.3,5.02,000.00,026.6,025.4,000.0,035.1,028.0,10.3,0002.7,0005.82,0009.98,0005.42
2023-11-02 00:46:00,SystemResetWarning,0831.3,5.01,000.00,026.6,025.4,000.0,035.1,028.0,10.1,0001.3,0005.58,0009.58,0005.18
2023-11-02 00:47:00,SystemResetWarning,0831.3,5.00,000.00,026.6,025.4,000.0,035.1,028.0,10.1,0000.6,0005.25,0009.13,0004.87
2023-11-02 00:48:00,SystemResetWarning,0831.3,4.99,000.00,026.6,025.4,000.0,035.1,028.0,10.3,0001.2,0004.93,0008.41,0004.58
2023-11-02 00:49:00,SystemResetWarning,0831.3,5.01,000.00,026.6,025.3,000.0,035.1,028.0,10.3,0000.0,0004.63,0007.70,0004.29
2023-11-02 00:50:00,SystemResetWarning,0831.3,4.99,000.00,026.6,025.3,000.0,035.1,028.0,10.5,0000.0,0004.31,0007.32,0003.98
2023-11-02 00:51:00,SystemResetWarning,0831.3,5.00,000.00,026.6,025.3,000.0,035.1,028.0,10.1,0000.0,0003.99,0006.78,0003.67
2023-11-02 00:52:00,SystemResetWarning,0831.3,5.01,000.00,026.6,025.3,000.0,035.0,028.0,10.2,0000.0,0003.74,0006.07,0003.44
2023-11-02 00:53:00,SystemResetWarning,0831.3,5.01,000.00,026.6,025.3,000.0,035.0,028.0,10.2,0000.0,0003.60,0006.21,0003.32
2023-11-02 00:54:00,SystemResetWarning,0831.3,5.00,000.00,026.6,025.3,000.0,035.0,027.9,10.2,0000.0,0003.31,0005.65,0003.02
2023-11-02 00:55:00,SystemResetWarning,0831.3,5.00,000.00,026.6,025.3,000.0,035.0,027.9,10.3,0000.0,0003.15,0005.24,0002.74
2023-11-02 00:56:00,SystemResetWarning,0831.3,4.99,000.00,026.6,025.3,000.0,035.0,028.0,10.3,0000.0,0002.86,0004.87,0002.42
2023-11-02 00:57:00,SystemResetWarning,0831.3,5.00,000.00,026.6,025.3,000.0,035.0,027.9,10.2,0000.0,0002.52,0004.53,0002.13
2023-11-02 00:58:00,SystemResetWarning,0831.3,5.02,000.00,026.5,025.3,000.0,035.0,027.9,10.2,0000.0,0002.27,0004.16,0001.92
2023-11-02 00:59:00,SystemResetWarning,0831.3,5.00,000.00,026.5,025.2,000.0,035.0,027.9,10.3,0000.0,0002.04,0003.81,0001.74
